| time (UTC) | temp F | wind direction | speed MPH | gust MPH | rain 1hr in | rain 24hr in | rain mn in | humidity % | barometer mb |
| 20260902211518 | 83 | 88 | 4.0 | 9.0 | 0.00 | 0.00 | 0.00 | 53 | 1009.5 |
| 20260902210010 | 82 | 48 | 1.0 | 9.0 | 0.00 | 0.00 | 0.00 | 53 | 1009.6 |
| 20260902204514 | 82 | 355 | 3.0 | 7.0 | 0.00 | 0.00 | 0.00 | 54 | 1009.6 |
| 20260902203008 | 81 | 55 | 1.0 | 6.0 | 0.00 | 0.00 | 0.00 | 55 | 1009.7 |
| 20260902201503 | 81 | 101 | 3.0 | 9.0 | 0.00 | 0.00 | 0.00 | 56 | 1009.7 |
| 20260902200021 | 80 | 20 | 2.0 | 7.0 | 0.00 | 0.00 | 0.00 | 59 | 1009.8 |
| 20260902194507 | 80 | 63 | 2.0 | 6.0 | 0.00 | 0.00 | 0.00 | 58 | 1010.0 |
| 20260902193131 | 81 | 54 | 4.0 | 9.0 | 0.00 | 0.00 | 0.00 | 59 | 1010.0 |
| 20260902191621 | 79 | 88 | 1.0 | 6.0 | 0.00 | 0.00 | 0.00 | 58 | 1010.2 |
| 20260902190004 | 79 | 54 | 1.0 | 6.0 | 0.00 | 0.00 | 0.00 | 56 | 1010.5 |
| 20260902184512 | 79 | 87 | 3.0 | 6.0 | 0.00 | 0.00 | 0.00 | 58 | 1010.7 |
| 20260902183018 | 79 | 61 | 3.0 | 6.0 | 0.00 | 0.00 | 0.00 | 60 | 1010.8 |
| 20260902181629 | 79 | 22 | 2.0 | 10.0 | 0.00 | 0.00 | 0.00 | 59 | 1010.9 |
| 20260902180008 | 80 | 112 | 1.0 | 4.0 | 0.00 | 0.00 | 0.00 | 66 | 1011.0 |
| 20260902174626 | 78 | 119 | 3.0 | 9.0 | 0.00 | 0.00 | 0.00 | 65 | 1011.0 |
| 20260902173012 | 77 | 22 | 1.0 | 6.0 | 0.00 | 0.00 | 0.00 | 65 | 1011.0 |
| 20260902171511 | 78 | 45 | 2.0 | 6.0 | 0.00 | 0.00 | 0.00 | 66 | 1011.0 |
| 20260902170011 | 77 | 40 | 1.0 | 6.0 | 0.00 | 0.00 | 0.00 | 64 | 1011.1 |
| 20260902164626 | 77 | 69 | 3.0 | 6.0 | 0.00 | 0.00 | 0.00 | 65 | 1011.1 |
| 20260902163001 | 75 | 355 | 4.0 | 6.0 | 0.00 | 0.00 | 0.00 | 69 | 1011.3 |
| 20260902161513 | 75 | 28 | 2.0 | 6.0 | 0.00 | 0.00 | 0.00 | 70 | 1011.3 |
| 20260902160010 | 74 | 121 | 1.0 | 4.0 | 0.00 | 0.00 | 0.00 | 69 | 1011.4 |
| 20260902154501 | 72 | 181 | 2.0 | 6.0 | 0.00 | 0.00 | 0.00 | 75 | 1011.6 |
| 20260902153009 | 72 | 175 | 2.0 | 5.0 | 0.00 | 0.00 | 0.00 | 75 | 1011.4 |
| 20260902151627 | 73 | 88 | 2.0 | 6.0 | 0.00 | 0.00 | 0.00 | 75 | 1011.0 |
| 20260902150007 | 72 | 124 | 0.0 | 3.0 | 0.00 | 0.00 | 0.00 | 74 | 1010.8 |
| 20260902144512 | 72 | 124 | 1.0 | 6.0 | 0.00 | 0.00 | 0.00 | 75 | 1010.9 |
| 20260902143011 | 71 | 178 | 3.0 | 7.0 | 0.00 | 0.00 | 0.00 | 78 | 1011.0 |
| 20260902141511 | 70 | 176 | 2.0 | 6.0 | 0.00 | 0.00 | 0.00 | 80 | 1011.0 |
| 20260902140015 | 68 | 185 | 2.0 | 5.0 | 0.00 | 0.00 | 0.00 | 82 | 1011.4 |
| 20260902134625 | 68 | 101 | 1.0 | 5.0 | 0.00 | 0.00 | 0.00 | 82 | 1011.6 |
| 20260902133005 | 67 | 146 | 0.0 | 4.0 | 0.00 | 0.00 | 0.00 | 84 | 1011.4 |
| 20260902131630 | 67 | 111 | 2.0 | 4.0 | 0.00 | 0.00 | 0.00 | 86 | 1011.2 |
| 20260902130014 | 65 | 126 | 2.0 | 4.0 | 0.00 | 0.00 | 0.00 | 89 | 1011.3 |
| 20260902124513 | 64 | 126 | 3.0 | 6.0 | 0.00 | 0.00 | 0.00 | 88 | 1011.5 |
| 20260902123016 | 64 | 102 | 2.0 | 6.0 | 0.00 | 0.00 | 0.00 | 89 | 1011.5 |
| 20260902121628 | 64 | 134 | 3.0 | 4.0 | 0.00 | 0.00 | 0.00 | 89 | 1011.7 |
| 20260902120146 | 64 | 161 | 0.0 | 2.0 | 0.00 | 0.00 | 0.00 | 89 | 1011.8 |
| 20260902114505 | 64 | 161 | 0.0 | 1.0 | 0.00 | 0.00 | 0.00 | 88 | 1011.8 |
| 20260902113007 | 64 | 161 | 0.0 | 2.0 | 0.00 | 0.00 | 0.00 | 88 | 1011.5 |
| 20260902111514 | 64 | 161 | 0.0 | 3.0 | 0.00 | 0.00 | 0.00 | 89 | 1011.4 |
| 20260902110134 | 63 | 167 | 4.0 | 7.0 | 0.00 | 0.00 | 0.00 | 89 | 1011.6 |
| 20260902104514 | 63 | 12 | 0.0 | 1.0 | 0.00 | 0.00 | 0.00 | 88 | 1010.7 |
| 20260902103006 | 63 | 12 | 0.0 | 1.0 | 0.00 | 0.00 | 0.00 | 87 | 1010.6 |
| 20260902101513 | 64 | 12 | 0.0 | 2.0 | 0.00 | 0.00 | 0.00 | 86 | 1010.7 |
| 20260902100010 | 65 | 12 | 1.0 | 3.0 | 0.00 | 0.00 | 0.00 | 84 | 1010.7 |
| 20260902094510 | 65 | 12 | 2.0 | 3.0 | 0.00 | 0.00 | 0.00 | 84 | 1010.4 |
| 20260902093122 | 65 | 78 | 0.0 | 3.0 | 0.00 | 0.00 | 0.00 | 84 | 1010.6 |
| 20260902091516 | 65 | 78 | 1.0 | 4.0 | 0.00 | 0.00 | 0.00 | 84 | 1010.6 |
| 20260902090122 | 65 | 163 | 1.0 | 3.0 | 0.00 | 0.00 | 0.00 | 84 | 1011.1 |
| 20260902084510 | 65 | 163 | 1.0 | 3.0 | 0.00 | 0.00 | 0.00 | 84 | 1011.3 |
| 20260902083004 | 66 | 122 | 2.0 | 4.0 | 0.00 | 0.00 | 0.00 | 83 | 1011.2 |
| 20260902081517 | 66 | 122 | 3.0 | 6.0 | 0.00 | 0.00 | 0.00 | 82 | 1011.1 |
| 20260902080124 | 66 | 126 | 3.0 | 7.0 | 0.00 | 0.00 | 0.00 | 83 | 1011.1 |
| 20260902074508 | 67 | 184 | 1.0 | 2.0 | 0.00 | 0.00 | 0.00 | 81 | 1011.0 |
| 20260902073130 | 67 | 162 | 2.0 | 6.0 | 0.00 | 0.00 | 0.00 | 82 | 1011.3 |
| 20260902071514 | 67 | 129 | 1.0 | 2.0 | 0.00 | 0.00 | 0.00 | 84 | 1011.0 |
| 20260902070012 | 67 | 129 | 1.0 | 3.0 | 0.00 | 0.00 | 0.00 | 81 | 1011.1 |
| 20260902064516 | 66 | 129 | 2.0 | 4.0 | 0.00 | 0.00 | 0.00 | 84 | 1011.5 |
| 20260902063132 | 66 | 36 | 0.0 | 2.0 | 0.00 | 0.00 | 0.00 | 82 | 1011.1 |
| 20260902061513 | 68 | 36 | 1.0 | 3.0 | 0.00 | 0.00 | 0.00 | 81 | 1010.9 |
| 20260902060018 | 67 | 36 | 0.0 | 2.0 | 0.00 | 0.00 | 0.00 | 85 | 1011.1 |
| 20260902054527 | 67 | 36 | 0.0 | 2.0 | 0.00 | 0.00 | 0.00 | 86 | 1011.5 |
| 20260902053016 | 67 | 36 | 0.0 | 2.0 | 0.00 | 0.00 | 0.00 | 86 | 1011.8 |
| 20260902051514 | 67 | 36 | 0.0 | 1.0 | 0.00 | 0.00 | 0.00 | 84 | 1011.7 |
| 20260902050126 | 68 | 36 | 0.0 | 2.0 | 0.00 | 0.00 | 0.00 | 81 | 1011.5 |
| 20260902044515 | 69 | 36 | 2.0 | 3.0 | 0.00 | 0.00 | 0.00 | 80 | 1011.3 |
| 20260902043007 | 70 | 36 | 2.0 | 4.0 | 0.00 | 0.00 | 0.00 | 80 | 1011.3 |
| 20260902041517 | 70 | 13 | 1.0 | 3.0 | 0.00 | 0.00 | 0.00 | 79 | 1011.6 |
| 20260902040009 | 69 | 306 | 0.0 | 3.0 | 0.00 | 0.00 | 0.00 | 83 | 1011.7 |
| 20260902034503 | 69 | 293 | 0.0 | 1.0 | 0.00 | 0.00 | 0.00 | 84 | 1011.8 |
| 20260902033007 | 69 | 293 | 0.0 | 2.0 | 0.00 | 0.00 | 0.00 | 84 | 1012.1 |
| 20260902031514 | 70 | 293 | 0.0 | 2.0 | 0.00 | 0.00 | 0.00 | 83 | 1011.9 |
| 20260902030004 | 69 | 293 | 0.0 | 1.0 | 0.00 | 0.00 | 0.00 | 83 | 1011.7 |
| 20260902024513 | 68 | 293 | 0.0 | 0.0 | 0.00 | 0.00 | 0.00 | 83 | 1011.5 |
| 20260902023015 | 69 | 293 | 0.0 | 1.0 | 0.00 | 0.00 | 0.00 | 83 | 1011.6 |
| 20260902021508 | 69 | 293 | 0.0 | 2.0 | 0.00 | 0.00 | 0.00 | 81 | 1011.4 |
| 20260902020005 | 69 | 293 | 1.0 | 2.0 | 0.00 | 0.00 | 0.00 | 81 | 1011.4 |
| 20260902014630 | 70 | 293 | 0.0 | 2.0 | 0.00 | 0.00 | 0.00 | 79 | 1011.1 |
| 20260902013013 | 70 | 293 | 1.0 | 2.0 | 0.00 | 0.00 | 0.00 | 79 | 1011.4 |
| 20260902011624 | 70 | 293 | 0.0 | 2.0 | 0.00 | 0.00 | 0.00 | 76 | 1011.0 |
| 20260902010019 | 71 | 293 | 0.0 | 1.0 | 0.00 | 0.00 | 0.00 | 73 | 1010.8 |
| 20260902004623 | 72 | 293 | 0.0 | 1.0 | 0.00 | 0.00 | 0.00 | 70 | 1010.9 |
| 20260902003012 | 76 | 293 | 1.0 | 2.0 | 0.00 | 0.00 | 0.00 | 59 | 1011.1 |
| 20260902001507 | 77 | 293 | 1.0 | 4.0 | 0.00 | 0.00 | 0.00 | 56 | 1011.2 |
| 20260902000126 | 78 | 320 | 1.0 | 3.0 | 0.00 | 0.00 | 0.00 | 54 | 1011.3 |
| 20260901234628 | 78 | 320 | 1.0 | 4.0 | 0.00 | 0.00 | 0.00 | 54 | 1011.1 |
| 20260901233008 | 79 | 302 | 2.0 | 7.0 | 0.00 | 0.00 | 0.00 | 51 | 1011.2 |
| 20260901231513 | 80 | 315 | 4.0 | 9.0 | 0.00 | 0.00 | 0.00 | 49 | 1011.3 |
| 20260901230014 | 80 | 325 | 2.0 | 9.0 | 0.00 | 0.00 | 0.00 | 50 | 1011.3 |
| 20260901224506 | 81 | 303 | 3.0 | 9.0 | 0.00 | 0.00 | 0.00 | 46 | 1011.2 |
| 20260901223136 | 82 | 328 | 4.0 | 8.0 | 0.00 | 0.00 | 0.00 | 45 | 1011.3 |
| 20260901221508 | 82 | 269 | 4.0 | 7.0 | 0.00 | 0.00 | 0.00 | 48 | 1011.1 |
| 20260901220019 | 81 | 289 | 3.0 | 8.0 | 0.00 | 0.00 | 0.00 | 46 | 1011.0 |
| 20260901214627 | 81 | 271 | 3.0 | 9.0 | 0.00 | 0.00 | 0.00 | 46 | 1011.0 |
| 20260901213010 | 82 | 321 | 2.0 | 9.0 | 0.00 | 0.00 | 0.00 | 44 | 1010.8 |